User: anonymous   Login
Location: Athabasca
(54.7194°N, 113.2858°W)
Time: 22:16:20
(UTC+00:00)
Language:

STARLINK-5803 - Orbit

View from above orbital plane
View from above orbital plane
View from above satellite
View from above satellite

Ground track
Ground track

The orbit data is extracted from the following two-line orbital elements,

1 56008C 23042Y   24148.79284722  .00009443  00000+0  69675-3 0  1481
2 56008  43.0044 352.4425 0001418 265.6151 104.2836 15.02526897    11
Epoch (UTC): 27 May 2024 19:01:42
Eccentricity: 0.0001418
inclination: 43.0044°
perigee height: 558 km
apogee height: 560 km
right ascension of ascending node: 352.4425°
argument of perigee: 265.6151°
revolutions per day: 15.02526897
mean anomaly at epoch: 104.2836°
orbit number at epoch: 1

The dashed part of the orbit path shows where the satellite is in the earth's shadow,  

DLR